Location: Home
(42.5358°N, 72.7383°W)
Time: 22:58:45
(UTC-04:00)

Explorer 11/Cluster Stage 4 - All Passes

Search period start: 17 April 2025 00:00
Search period end: 27 April 2025 00:00
Orbit: 463 x 1193 km, 28.8° (Epoch: 17 April)

Date Brightness Start Highest point End Pass type
(mag) Time Alt. Az. Time Alt. Az. Time Alt. Az.
17 Apr - 08:19:13 10° SSW 08:20:23 11° S 08:21:31 10° SSE daylight
17 Apr - 10:06:57 10° S 10:07:04 10° S 10:07:12 10° S daylight
18 Apr - 07:56:50 10° SSW 07:58:41 12° S 08:00:27 10° SSE daylight
18 Apr - 09:44:30 10° SSW 09:45:23 11° S 09:46:17 10° S daylight
19 Apr - 07:34:31 10° SSW 07:36:58 14° S 07:39:13 10° SSE daylight
19 Apr - 09:22:19 10° SSW 09:23:42 11° S 09:25:02 10° S daylight
20 Apr - 05:27:24 10° S 05:28:13 10° SSE 05:29:02 10° SSE visible
20 Apr - 07:12:14 10° SSW 07:15:12 15° S 07:17:53 10° SE daylight
20 Apr - 09:00:08 10° SW 09:01:58 12° SSW 09:03:42 10° SSE daylight
21 Apr - 05:04:13 10° S 05:06:23 12° SSE 05:08:24 10° SE visible
21 Apr - 06:49:55 10° SW 06:53:24 17° S 06:56:30 10° SE daylight
21 Apr - 08:37:56 10° SW 08:40:12 13° SSW 08:42:19 10° SSE daylight
22 Apr - 04:41:30 10° SSW 04:44:28 13° SSE 04:47:13 10° SE visible
22 Apr - 06:27:36 10° SW 06:31:34 18° S 06:35:03 10° SE daylight
22 Apr - 08:15:43 10° SW 08:18:25 14° SSW 08:20:53 10° SSE daylight
23 Apr - 04:18:54 10° SSW 04:22:31 15° SSE 04:25:51 10° SE visible
23 Apr - 06:05:17 10° SW 06:09:41 20° S 06:13:32 10° SE daylight
23 Apr - 07:53:27 10° SW 07:56:35 15° SSW 07:59:24 10° SSE daylight
24 Apr - 03:56:23 10° SSW 04:00:32 16° SSE 04:04:20 10° SE visible
24 Apr - 05:42:56 10° SW 05:47:44 21° S 05:51:57 10° SE daylight
24 Apr - 07:31:11 10° SW 07:34:43 16° SSW 07:37:51 10° SSE daylight
25 Apr - 03:33:54 10° SSW 03:38:30 18° SSE 03:42:43 10° SE visible
25 Apr - 05:20:35 10° SW 05:25:46 23° S 05:30:19 10° SE visible
25 Apr - 07:08:53 10° SW 07:12:47 18° SSW 07:16:16 10° SSE daylight
26 Apr - 03:11:27 10° SSW 03:16:25 19° SSE 03:21:01 10° SE visible
26 Apr - 04:58:13 10° SW 05:03:44 24° S 05:08:37 10° SE visible
26 Apr - 06:46:33 10° WSW 06:50:50 19° SSW 06:54:38 10° SSE daylight
